Year,Month,Day,Hour,Minute,Value (Times are PST for temperature in C)
2016,04,26,00,00,8.90
2016,04,26,00,01,8.80
2016,04,26,00,02,8.80
2016,04,26,00,03,8.70
2016,04,26,00,04,8.60
2016,04,26,00,05,8.60
2016,04,26,00,06,8.50
2016,04,26,00,07,8.50
2016,04,26,00,08,8.40
2016,04,26,00,09,8.40
2016,04,26,00,10,8.40
2016,04,26,00,11,8.40
2016,04,26,00,12,8.40
2016,04,26,00,13,8.40
2016,04,26,00,14,8.40
2016,04,26,00,15,8.40
2016,04,26,00,16,8.50
2016,04,26,00,17,8.50
2016,04,26,00,18,8.60
2016,04,26,00,19,8.60
2016,04,26,00,20,8.60
2016,04,26,00,21,8.60
2016,04,26,00,22,8.70
2016,04,26,00,23,8.70
2016,04,26,00,24,8.70
2016,04,26,00,25,8.70
2016,04,26,00,26,8.70
2016,04,26,00,27,8.70
2016,04,26,00,28,8.70
2016,04,26,00,29,8.70
2016,04,26,00,30,8.70
2016,04,26,00,31,8.70
2016,04,26,00,32,8.70
2016,04,26,00,33,8.70
2016,04,26,00,34,8.70
2016,04,26,00,35,8.70
2016,04,26,00,36,8.70
2016,04,26,00,37,8.70
2016,04,26,00,38,8.70
2016,04,26,00,39,8.70
2016,04,26,00,40,8.70
2016,04,26,00,41,8.70
2016,04,26,00,42,8.70
2016,04,26,00,43,8.60
2016,04,26,00,44,8.60
2016,04,26,00,45,8.60
2016,04,26,00,46,8.50
2016,04,26,00,47,8.50
2016,04,26,00,48,8.50
2016,04,26,00,49,8.40
2016,04,26,00,50,8.40
2016,04,26,00,51,8.40
2016,04,26,00,52,8.40
2016,04,26,00,53,8.40
2016,04,26,00,54,8.30
2016,04,26,00,55,8.30
2016,04,26,00,56,8.30
2016,04,26,00,57,8.30
2016,04,26,00,58,8.30
2016,04,26,00,59,8.30
2016,04,26,01,00,8.30
2016,04,26,01,01,8.30
2016,04,26,01,02,8.20
2016,04,26,01,03,8.20
2016,04,26,01,04,8.20
2016,04,26,01,05,8.20
2016,04,26,01,06,8.20
2016,04,26,01,07,8.10
2016,04,26,01,08,8.10
2016,04,26,01,09,8.10
2016,04,26,01,10,8.10
2016,04,26,01,11,8.00
2016,04,26,01,12,8.00
2016,04,26,01,13,8.00
2016,04,26,01,14,7.90
2016,04,26,01,15,7.90
2016,04,26,01,16,7.90
2016,04,26,01,17,7.80
2016,04,26,01,18,7.80
2016,04,26,01,19,7.80
2016,04,26,01,20,7.80
2016,04,26,01,21,7.70
2016,04,26,01,22,7.70
2016,04,26,01,23,7.70
2016,04,26,01,24,7.70
2016,04,26,01,25,7.60
2016,04,26,01,26,7.60
2016,04,26,01,27,7.60
2016,04,26,01,28,7.50
2016,04,26,01,29,7.50
2016,04,26,01,30,7.50
2016,04,26,01,31,7.40
2016,04,26,01,32,7.40
2016,04,26,01,33,7.30
2016,04,26,01,34,7.30
2016,04,26,01,35,7.30
2016,04,26,01,36,7.20
2016,04,26,01,37,7.20
2016,04,26,01,38,7.20
2016,04,26,01,39,7.20
2016,04,26,01,40,7.10
2016,04,26,01,41,7.10
2016,04,26,01,42,7.10
2016,04,26,01,43,7.10
2016,04,26,01,44,7.00
2016,04,26,01,45,7.00
2016,04,26,01,46,7.00
2016,04,26,01,47,6.90
2016,04,26,01,48,6.90
2016,04,26,01,49,6.90
2016,04,26,01,50,6.90
2016,04,26,01,51,6.90
2016,04,26,01,52,6.90
2016,04,26,01,53,6.80
2016,04,26,01,54,6.80
2016,04,26,01,55,6.80
2016,04,26,01,56,6.80
2016,04,26,01,57,6.80
2016,04,26,01,58,6.70
2016,04,26,01,59,6.70
2016,04,26,02,00,6.70
2016,04,26,02,01,6.70
2016,04,26,02,02,6.70
2016,04,26,02,03,6.70
2016,04,26,02,04,6.70
2016,04,26,02,05,6.60
2016,04,26,02,06,6.60
2016,04,26,02,07,6.60
2016,04,26,02,08,6.60
2016,04,26,02,09,6.60
2016,04,26,02,10,6.50
2016,04,26,02,11,6.50
2016,04,26,02,12,6.40
2016,04,26,02,13,6.40
2016,04,26,02,14,6.40
2016,04,26,02,15,6.40
2016,04,26,02,16,6.40
2016,04,26,02,17,6.40
2016,04,26,02,18,6.30
2016,04,26,02,19,6.30
2016,04,26,02,20,6.30
2016,04,26,02,21,6.30
2016,04,26,02,22,6.30
2016,04,26,02,23,6.30
2016,04,26,02,24,6.30
2016,04,26,02,25,6.30
2016,04,26,02,26,6.30
2016,04,26,02,27,6.30
2016,04,26,02,28,6.20
2016,04,26,02,29,6.20
2016,04,26,02,30,6.20
2016,04,26,02,31,6.20
2016,04,26,02,32,6.20
2016,04,26,02,33,6.20
2016,04,26,02,34,6.20
2016,04,26,02,35,6.10
2016,04,26,02,36,6.10
2016,04,26,02,37,6.10
2016,04,26,02,38,6.10
2016,04,26,02,39,6.10
2016,04,26,02,40,6.10
2016,04,26,02,41,6.10
2016,04,26,02,42,6.00
2016,04,26,02,43,6.10
2016,04,26,02,44,6.00
2016,04,26,02,45,6.00
2016,04,26,02,46,6.00
2016,04,26,02,47,6.00
2016,04,26,02,48,6.00
2016,04,26,02,49,6.00
2016,04,26,02,50,6.00
2016,04,26,02,51,5.90
2016,04,26,02,52,5.90
2016,04,26,02,53,5.90
2016,04,26,02,54,5.90
2016,04,26,02,55,5.90
2016,04,26,02,56,5.80
2016,04,26,02,57,5.80
2016,04,26,02,58,5.80
2016,04,26,02,59,5.80
2016,04,26,03,00,5.80
2016,04,26,03,01,5.80
2016,04,26,03,02,5.80
2016,04,26,03,06,5.70
2016,04,26,03,07,5.70
2016,04,26,03,08,5.70
2016,04,26,03,09,5.70
2016,04,26,03,10,5.70
2016,04,26,03,11,5.60
2016,04,26,03,12,5.60
2016,04,26,03,13,5.60
2016,04,26,03,14,5.60
2016,04,26,03,15,5.60
2016,04,26,03,16,5.60
2016,04,26,03,17,5.50
2016,04,26,03,18,5.50
2016,04,26,03,19,5.50
2016,04,26,03,20,5.50
2016,04,26,03,21,5.50
2016,04,26,03,22,5.40
2016,04,26,03,23,5.40
2016,04,26,03,24,5.40
2016,04,26,03,25,5.40
2016,04,26,03,26,5.40
2016,04,26,03,27,5.40
2016,04,26,03,28,5.30
2016,04,26,03,29,5.30
2016,04,26,03,30,5.30
2016,04,26,03,31,5.30
2016,04,26,03,32,5.30
2016,04,26,03,33,5.20
2016,04,26,03,34,5.20
2016,04,26,03,35,5.20
2016,04,26,03,36,5.20
2016,04,26,03,37,5.10
2016,04,26,03,38,5.10
2016,04,26,03,39,5.10
2016,04,26,03,40,5.10
2016,04,26,03,41,5.00
2016,04,26,03,42,5.00
2016,04,26,03,43,5.00
2016,04,26,03,44,5.00
2016,04,26,03,45,5.00
2016,04,26,03,46,4.90
2016,04,26,03,47,4.90
2016,04,26,03,48,4.90
2016,04,26,03,49,4.90
2016,04,26,03,50,4.90
2016,04,26,03,51,4.90
2016,04,26,03,52,4.80
2016,04,26,03,53,4.80
2016,04,26,03,54,4.80
2016,04,26,03,55,4.80
2016,04,26,03,56,4.80
2016,04,26,03,57,4.80
2016,04,26,03,58,4.80
2016,04,26,03,59,4.80
2016,04,26,04,00,4.80
2016,04,26,04,01,4.70
2016,04,26,04,02,4.70
2016,04,26,04,03,4.70
2016,04,26,04,04,4.70
2016,04,26,04,05,4.70
2016,04,26,04,06,4.70
2016,04,26,04,07,4.70
2016,04,26,04,08,4.70
2016,04,26,04,09,4.60
2016,04,26,04,10,4.60
2016,04,26,04,11,4.60
2016,04,26,04,12,4.60
2016,04,26,04,13,4.60
2016,04,26,04,14,4.60
2016,04,26,04,15,4.50
2016,04,26,04,16,4.50
2016,04,26,04,17,4.50
2016,04,26,04,18,4.50
2016,04,26,04,19,4.40
2016,04,26,04,20,4.40
2016,04,26,04,21,4.40
2016,04,26,04,22,4.40
2016,04,26,04,23,4.30
2016,04,26,04,24,4.30
2016,04,26,04,25,4.30
2016,04,26,04,26,4.30
2016,04,26,04,27,4.30
2016,04,26,04,28,4.30
2016,04,26,04,29,4.30
2016,04,26,04,30,4.30
2016,04,26,04,31,4.20
2016,04,26,04,32,4.20
2016,04,26,04,33,4.20
2016,04,26,04,34,4.20
2016,04,26,04,35,4.20
2016,04,26,04,36,4.20
2016,04,26,04,37,4.20
2016,04,26,04,38,4.20
2016,04,26,04,39,4.20
2016,04,26,04,40,4.20
2016,04,26,04,41,4.20
2016,04,26,04,42,4.20
2016,04,26,04,43,4.20
2016,04,26,04,44,4.20
2016,04,26,04,45,4.20
2016,04,26,04,46,4.20
2016,04,26,04,47,4.10
2016,04,26,04,48,4.10
2016,04,26,04,49,4.10
2016,04,26,04,50,4.10
2016,04,26,04,51,4.10
2016,04,26,04,52,4.10
2016,04,26,04,53,4.00
2016,04,26,04,54,4.00
2016,04,26,04,55,4.00
2016,04,26,04,56,4.00
2016,04,26,04,57,4.00
2016,04,26,04,58,4.00
2016,04,26,04,59,4.00
2016,04,26,05,00,4.00
2016,04,26,05,01,4.00
2016,04,26,05,02,4.00
2016,04,26,05,03,4.00
2016,04,26,05,04,4.00
2016,04,26,05,05,4.00
2016,04,26,05,06,4.00
2016,04,26,05,07,4.00
2016,04,26,05,08,4.00
2016,04,26,05,09,4.00
2016,04,26,05,10,3.90
2016,04,26,05,11,3.90
2016,04,26,05,12,3.90
2016,04,26,05,13,3.90
2016,04,26,05,14,3.90
2016,04,26,05,15,3.90
2016,04,26,05,16,3.90
2016,04,26,05,17,3.90
2016,04,26,05,18,3.80
2016,04,26,05,19,3.80
2016,04,26,05,20,3.80
2016,04,26,05,21,3.80
2016,04,26,05,22,3.80
2016,04,26,05,23,3.80
2016,04,26,05,24,3.80
2016,04,26,05,25,3.80
2016,04,26,05,26,3.80
2016,04,26,05,27,3.80
2016,04,26,05,28,3.80
2016,04,26,05,29,3.80
2016,04,26,05,30,3.80
2016,04,26,05,31,3.80
2016,04,26,05,32,3.80
2016,04,26,05,33,3.80
2016,04,26,05,34,3.70
2016,04,26,05,35,3.70
2016,04,26,05,36,3.70
2016,04,26,05,37,3.70
2016,04,26,05,38,3.60
2016,04,26,05,39,3.60
2016,04,26,05,40,3.60
2016,04,26,05,41,3.60
2016,04,26,05,42,3.60
2016,04,26,05,43,3.60
2016,04,26,05,44,3.60
2016,04,26,05,45,3.60
2016,04,26,05,46,3.60
2016,04,26,05,47,3.60
2016,04,26,05,48,3.60
2016,04,26,05,49,3.50
2016,04,26,05,50,3.50
2016,04,26,05,51,3.50
2016,04,26,05,52,3.60
2016,04,26,05,53,3.50
2016,04,26,05,54,3.50
2016,04,26,05,55,3.50
2016,04,26,05,56,3.50
2016,04,26,05,57,3.50
2016,04,26,05,58,3.50
2016,04,26,05,59,3.40
2016,04,26,06,00,3.40
2016,04,26,06,01,3.40
2016,04,26,06,02,3.40
2016,04,26,06,03,3.40
2016,04,26,06,04,3.40
2016,04,26,06,05,3.40
2016,04,26,06,06,3.40
2016,04,26,06,07,3.40
2016,04,26,06,08,3.40
2016,04,26,06,09,3.40
2016,04,26,06,10,3.30
2016,04,26,06,11,3.40
2016,04,26,06,12,3.30
2016,04,26,06,13,3.30
2016,04,26,06,14,3.30
2016,04,26,06,15,3.30
2016,04,26,06,16,3.30
2016,04,26,06,17,3.30
2016,04,26,06,18,3.30
2016,04,26,06,19,3.30
2016,04,26,06,20,3.30
2016,04,26,06,21,3.30
2016,04,26,06,22,3.30
2016,04,26,06,23,3.30
2016,04,26,06,24,3.30
2016,04,26,06,25,3.30
2016,04,26,06,26,3.30
2016,04,26,06,27,3.30
2016,04,26,06,28,3.30
2016,04,26,06,29,3.30
2016,04,26,06,30,3.30
2016,04,26,06,31,3.30
2016,04,26,06,32,3.30
2016,04,26,06,33,3.30
2016,04,26,06,34,3.30
2016,04,26,06,35,3.30
2016,04,26,06,36,3.30
2016,04,26,06,37,3.30
2016,04,26,06,38,3.30
2016,04,26,06,39,3.30
2016,04,26,06,40,3.30
2016,04,26,06,41,3.30
2016,04,26,06,42,3.30
2016,04,26,06,43,3.30
2016,04,26,06,44,3.40
2016,04,26,06,45,3.40
2016,04,26,06,46,3.40
2016,04,26,06,47,3.40
2016,04,26,06,48,3.50
2016,04,26,06,49,3.50
2016,04,26,06,50,3.50
2016,04,26,06,51,3.50
2016,04,26,06,52,3.50
2016,04,26,06,53,3.60
2016,04,26,06,54,3.60
2016,04,26,06,55,3.60
2016,04,26,06,56,3.60
2016,04,26,06,57,3.60
2016,04,26,06,58,3.70
2016,04,26,06,59,3.70
2016,04,26,07,00,3.70
2016,04,26,07,01,3.80
2016,04,26,07,02,3.80
2016,04,26,07,03,3.80
2016,04,26,07,04,3.80
2016,04,26,07,05,3.90
2016,04,26,07,06,3.90
2016,04,26,07,07,3.90
2016,04,26,07,08,4.00
2016,04,26,07,09,4.00
2016,04,26,07,10,4.10
2016,04,26,07,11,4.10
2016,04,26,07,12,4.20
2016,04,26,07,13,4.20
2016,04,26,07,14,4.20
2016,04,26,07,15,4.30
2016,04,26,07,16,4.30
2016,04,26,07,17,4.40
2016,04,26,07,18,4.40
2016,04,26,07,19,4.40
2016,04,26,07,20,4.50
2016,04,26,07,21,4.50
2016,04,26,07,22,4.60
2016,04,26,07,23,4.60
2016,04,26,07,24,4.70
2016,04,26,07,25,4.70
2016,04,26,07,26,4.70
2016,04,26,07,27,4.70
2016,04,26,07,28,4.80
2016,04,26,07,29,4.80
2016,04,26,07,30,4.90
2016,04,26,07,31,4.90
2016,04,26,07,32,5.00
2016,04,26,07,33,5.00
2016,04,26,07,34,5.10
2016,04,26,07,35,5.10
2016,04,26,07,36,5.10
2016,04,26,07,37,5.20
2016,04,26,07,38,5.20
2016,04,26,07,39,5.30
2016,04,26,07,40,5.30
2016,04,26,07,41,5.30
2016,04,26,07,42,5.40
2016,04,26,07,43,5.40
2016,04,26,07,44,5.50
2016,04,26,07,45,5.60
2016,04,26,07,46,5.60
2016,04,26,07,47,5.60
2016,04,26,07,48,5.70
2016,04,26,07,49,5.70
2016,04,26,07,50,5.80
2016,04,26,07,51,5.90
2016,04,26,07,52,6.00
2016,04,26,07,53,6.00
2016,04,26,07,54,6.10
2016,04,26,07,55,6.20
2016,04,26,07,56,6.30
2016,04,26,07,57,6.40
2016,04,26,07,58,6.50
2016,04,26,07,59,6.60
2016,04,26,08,00,6.60
2016,04,26,08,01,6.70
2016,04,26,08,02,6.80
2016,04,26,08,03,6.90
2016,04,26,08,04,7.00
2016,04,26,08,05,7.00
2016,04,26,08,06,7.10
2016,04,26,08,07,7.20
2016,04,26,08,08,7.30
2016,04,26,08,09,7.40
2016,04,26,08,10,7.50
2016,04,26,08,11,7.60
2016,04,26,08,12,7.70
2016,04,26,08,13,7.80
2016,04,26,08,14,7.80
2016,04,26,08,15,7.90
2016,04,26,08,16,7.90
2016,04,26,08,17,8.00
2016,04,26,08,18,8.10
2016,04,26,08,19,8.10
2016,04,26,08,20,8.20
2016,04,26,08,21,8.20
2016,04,26,08,22,8.30
2016,04,26,08,23,8.40
2016,04,26,08,24,8.40
2016,04,26,08,25,8.50
2016,04,26,08,26,8.60
2016,04,26,08,27,8.60
2016,04,26,08,28,8.70
2016,04,26,08,29,8.80
2016,04,26,08,30,8.80
2016,04,26,08,31,8.90
2016,04,26,08,32,8.90
2016,04,26,08,33,8.90
2016,04,26,08,34,8.90
2016,04,26,08,35,9.00
2016,04,26,08,36,9.00
2016,04,26,08,37,9.00
2016,04,26,08,38,9.10
2016,04,26,08,39,9.10
2016,04,26,08,40,9.10
2016,04,26,08,41,9.20
2016,04,26,08,42,9.20
2016,04,26,08,43,9.20
2016,04,26,08,44,9.30
2016,04,26,08,45,9.30
2016,04,26,08,46,9.30
2016,04,26,08,47,9.30
2016,04,26,08,48,9.30
2016,04,26,08,49,9.40
2016,04,26,08,50,9.40
2016,04,26,08,51,9.40
2016,04,26,08,52,9.40
2016,04,26,08,53,9.50
2016,04,26,08,54,9.50
2016,04,26,08,55,9.50
2016,04,26,08,56,9.50
2016,04,26,08,57,9.50
2016,04,26,08,58,9.50
2016,04,26,08,59,9.50
2016,04,26,09,00,9.50
2016,04,26,09,01,9.50
2016,04,26,09,02,9.60
2016,04,26,09,03,9.60
2016,04,26,09,04,9.60
2016,04,26,09,05,9.60
2016,04,26,09,06,9.60
2016,04,26,09,07,9.60
2016,04,26,09,08,9.60
2016,04,26,09,09,9.70
2016,04,26,09,10,9.70
2016,04,26,09,11,9.70
2016,04,26,09,12,9.70
2016,04,26,09,13,9.70
2016,04,26,09,14,9.70
2016,04,26,09,15,9.80
2016,04,26,09,16,9.80
2016,04,26,09,17,9.80
2016,04,26,09,18,9.80
2016,04,26,09,19,9.90
2016,04,26,09,20,9.90
2016,04,26,09,21,9.90
2016,04,26,09,22,9.90
2016,04,26,09,23,9.90
2016,04,26,09,24,9.80
2016,04,26,09,25,9.80
2016,04,26,09,26,9.90
2016,04,26,09,27,9.90
2016,04,26,09,28,9.90
2016,04,26,09,29,9.90
2016,04,26,09,30,10.00
2016,04,26,09,31,10.00
2016,04,26,09,32,10.10
2016,04,26,09,33,10.10
2016,04,26,09,34,10.10
2016,04,26,09,35,10.20
2016,04,26,09,36,10.20
2016,04,26,09,37,10.20
2016,04,26,09,38,10.30
2016,04,26,09,39,10.30
2016,04,26,09,40,10.40
2016,04,26,09,41,10.40
2016,04,26,09,42,10.50
2016,04,26,09,43,10.50
2016,04,26,09,44,10.60
2016,04,26,09,45,10.70
2016,04,26,09,46,10.70
2016,04,26,09,47,10.80
2016,04,26,09,48,10.80
2016,04,26,09,49,10.90
2016,04,26,09,50,10.90
2016,04,26,09,51,10.90
2016,04,26,09,52,10.90
2016,04,26,09,53,11.00
2016,04,26,09,54,11.00
2016,04,26,09,55,11.10
2016,04,26,09,56,11.10
2016,04,26,09,57,11.20
2016,04,26,09,58,11.20
2016,04,26,09,59,11.20
2016,04,26,10,00,11.20
2016,04,26,10,01,11.30
2016,04,26,10,02,11.30
2016,04,26,10,03,11.30
2016,04,26,10,04,11.30
2016,04,26,10,05,11.20
2016,04,26,10,06,11.20
2016,04,26,10,07,11.20
2016,04,26,10,08,11.20
2016,04,26,10,09,11.30
2016,04,26,10,10,11.30
2016,04,26,10,11,11.30
2016,04,26,10,12,11.30
2016,04,26,10,13,11.30
2016,04,26,10,14,11.30
2016,04,26,10,15,11.40
2016,04,26,10,16,11.40
2016,04,26,10,17,11.40
2016,04,26,10,18,11.50
2016,04,26,10,19,11.50
2016,04,26,10,20,11.60
2016,04,26,10,21,11.60
2016,04,26,10,22,11.60
2016,04,26,10,23,11.60
2016,04,26,10,24,11.60
2016,04,26,10,25,11.60
2016,04,26,10,26,11.60
2016,04,26,10,27,11.60
2016,04,26,10,28,11.60
2016,04,26,10,29,11.60
2016,04,26,10,30,11.70
2016,04,26,10,31,11.70
2016,04,26,10,32,11.70
2016,04,26,10,33,11.70
2016,04,26,10,34,11.70
2016,04,26,10,35,11.60
2016,04,26,10,36,11.50
2016,04,26,10,37,11.40
2016,04,26,10,38,11.40
2016,04,26,10,39,11.30
2016,04,26,10,40,11.30
2016,04,26,10,41,11.30
2016,04,26,10,42,11.30
2016,04,26,10,43,11.20
2016,04,26,10,44,11.20
2016,04,26,10,45,11.30
2016,04,26,10,46,11.30
2016,04,26,10,47,11.30
2016,04,26,10,48,11.40
2016,04,26,10,49,11.30
2016,04,26,10,50,11.30
2016,04,26,10,51,11.30
2016,04,26,10,52,11.30
2016,04,26,10,53,11.30
2016,04,26,10,54,11.40
2016,04,26,10,55,11.40
2016,04,26,10,56,11.40
2016,04,26,10,57,11.50
2016,04,26,10,58,11.50
2016,04,26,10,59,11.50
2016,04,26,11,00,11.60
2016,04,26,11,01,11.60
2016,04,26,11,02,11.60
2016,04,26,11,03,11.60
2016,04,26,11,04,11.70
2016,04,26,11,05,11.70
2016,04,26,11,06,11.70
2016,04,26,11,07,11.70
2016,04,26,11,08,11.80
2016,04,26,11,09,11.80
2016,04,26,11,10,11.90
2016,04,26,11,11,11.90
2016,04,26,11,12,11.90
2016,04,26,11,13,12.00
2016,04,26,11,14,12.00
2016,04,26,11,15,12.10
2016,04,26,11,16,12.20
2016,04,26,11,17,12.20
2016,04,26,11,18,12.30
2016,04,26,11,19,12.30
2016,04,26,11,20,12.30
2016,04,26,11,21,12.30
2016,04,26,11,22,12.40
2016,04,26,11,23,12.40
2016,04,26,11,24,12.40
2016,04,26,11,25,12.40
2016,04,26,11,26,12.50
2016,04,26,11,27,12.50
2016,04,26,11,28,12.50
2016,04,26,11,29,12.50
2016,04,26,11,30,12.50
2016,04,26,11,31,12.60
2016,04,26,11,32,12.60
2016,04,26,11,33,12.60
2016,04,26,11,34,12.60
2016,04,26,11,35,12.60
2016,04,26,11,36,12.60
2016,04,26,11,37,12.60
2016,04,26,11,38,12.70
2016,04,26,11,39,12.70
2016,04,26,11,40,12.70
2016,04,26,11,41,12.70
2016,04,26,11,42,12.70
2016,04,26,11,43,12.70
2016,04,26,11,44,12.70
2016,04,26,11,45,12.70
2016,04,26,11,46,12.70
2016,04,26,11,47,12.70
2016,04,26,11,48,12.70
2016,04,26,11,49,12.80
2016,04,26,11,50,12.80
2016,04,26,11,51,12.80
2016,04,26,11,52,12.80
2016,04,26,11,53,12.90
2016,04,26,11,54,12.90
2016,04,26,11,55,13.00
2016,04,26,11,56,13.00
2016,04,26,11,57,13.10
2016,04,26,11,58,13.10
2016,04,26,11,59,13.20
2016,04,26,12,00,13.20
2016,04,26,12,01,13.30
2016,04,26,12,02,13.30
2016,04,26,12,03,13.30
2016,04,26,12,04,13.30
2016,04,26,12,05,13.40
2016,04,26,12,06,13.40
2016,04,26,12,07,13.40
2016,04,26,12,08,13.40
2016,04,26,12,09,13.40
2016,04,26,12,10,13.40
2016,04,26,12,11,13.40
2016,04,26,12,12,13.30
2016,04,26,12,13,13.40
2016,04,26,12,14,13.40
2016,04,26,12,15,13.40
2016,04,26,12,16,13.40
2016,04,26,12,17,13.40
2016,04,26,12,18,13.40
2016,04,26,12,19,13.40
2016,04,26,12,20,13.40
2016,04,26,12,21,13.40
2016,04,26,12,22,13.40
2016,04,26,12,23,13.40
2016,04,26,12,24,13.40
2016,04,26,12,25,13.40
2016,04,26,12,26,13.40
2016,04,26,12,27,13.40
2016,04,26,12,28,13.50
2016,04,26,12,29,13.60
2016,04,26,12,30,13.60
2016,04,26,12,31,13.60
2016,04,26,12,32,13.60
2016,04,26,12,33,13.60
2016,04,26,12,34,13.60
2016,04,26,12,35,13.50
2016,04,26,12,36,13.50
2016,04,26,12,37,13.40
2016,04,26,12,38,13.40
2016,04,26,12,39,13.40
2016,04,26,12,40,13.40
2016,04,26,12,41,13.30
2016,04,26,12,42,13.30
2016,04,26,12,43,13.20
2016,04,26,12,44,13.10
2016,04,26,12,45,13.10
2016,04,26,12,46,13.00
2016,04,26,12,47,13.10
2016,04,26,12,48,13.10
2016,04,26,12,49,13.20
2016,04,26,12,50,13.20
2016,04,26,12,51,13.30
2016,04,26,12,52,13.30
2016,04,26,12,53,13.30
2016,04,26,12,54,13.40
2016,04,26,12,55,13.40
2016,04,26,12,56,13.40
2016,04,26,12,57,13.40
2016,04,26,12,58,13.40
2016,04,26,12,59,13.40
2016,04,26,13,00,13.30
2016,04,26,13,01,13.30
2016,04,26,13,02,13.20
2016,04,26,13,03,13.10
2016,04,26,13,04,13.00
2016,04,26,13,05,13.00
2016,04,26,13,06,13.00
2016,04,26,13,07,13.00
2016,04,26,13,08,13.00
2016,04,26,13,09,13.00
2016,04,26,13,10,13.00
2016,04,26,13,11,13.00
2016,04,26,13,12,13.00
2016,04,26,13,13,13.10
2016,04,26,13,14,13.00
2016,04,26,13,15,13.00
2016,04,26,13,16,13.00
2016,04,26,13,17,13.10
2016,04,26,13,18,13.00
2016,04,26,13,19,13.00
2016,04,26,13,20,13.00
2016,04,26,13,21,13.00
2016,04,26,13,22,13.00
2016,04,26,13,23,13.10
2016,04,26,13,24,13.10
2016,04,26,13,25,13.10
2016,04,26,13,26,13.10
2016,04,26,13,27,13.10
2016,04,26,13,28,13.10
2016,04,26,13,29,13.10
2016,04,26,13,30,13.10
2016,04,26,13,31,13.00
2016,04,26,13,32,13.00
2016,04,26,13,33,12.90
2016,04,26,13,34,12.90
2016,04,26,13,35,13.00
2016,04,26,13,36,13.00
2016,04,26,13,37,13.00
2016,04,26,13,38,13.10
2016,04,26,13,39,13.10
2016,04,26,13,40,13.20
2016,04,26,13,41,13.30
2016,04,26,13,42,13.40
2016,04,26,13,43,13.40
2016,04,26,13,44,13.50
2016,04,26,13,45,13.60
2016,04,26,13,46,13.60
2016,04,26,13,47,13.60
2016,04,26,13,48,13.60
2016,04,26,13,49,13.60
2016,04,26,13,50,13.50
2016,04,26,13,51,13.30
2016,04,26,13,52,13.20
2016,04,26,13,53,13.10
2016,04,26,13,54,13.00
2016,04,26,13,55,12.90
2016,04,26,13,56,12.80
2016,04,26,13,57,12.80
2016,04,26,13,58,12.80
2016,04,26,13,59,12.70
2016,04,26,14,00,12.70
2016,04,26,14,01,12.70
2016,04,26,14,02,12.70
2016,04,26,14,03,12.80
2016,04,26,14,04,12.80
2016,04,26,14,05,12.80
2016,04,26,14,06,12.80
2016,04,26,14,07,12.80
2016,04,26,14,08,12.80
2016,04,26,14,09,12.90
2016,04,26,14,10,12.90
2016,04,26,14,11,13.00
2016,04,26,14,12,13.10
2016,04,26,14,13,13.10
2016,04,26,14,14,13.20
2016,04,26,14,15,13.30
2016,04,26,14,16,13.30
2016,04,26,14,17,13.30
2016,04,26,14,18,13.40
2016,04,26,14,19,13.40
2016,04,26,14,20,13.40
2016,04,26,14,21,13.50
2016,04,26,14,22,13.50
2016,04,26,14,23,13.60
2016,04,26,14,24,13.60
2016,04,26,14,25,13.70
2016,04,26,14,26,13.80
2016,04,26,14,27,13.80
2016,04,26,14,28,13.80
2016,04,26,14,29,13.80
2016,04,26,14,30,13.90
2016,04,26,14,31,14.00
2016,04,26,14,32,14.00
2016,04,26,14,33,14.00
2016,04,26,14,34,14.00
2016,04,26,14,35,14.00
2016,04,26,14,36,14.00
2016,04,26,14,37,14.00
2016,04,26,14,38,14.00
2016,04,26,14,39,13.90
2016,04,26,14,40,14.00
2016,04,26,14,41,14.00
2016,04,26,14,42,14.00
2016,04,26,14,43,14.10
2016,04,26,14,44,14.20
2016,04,26,14,45,14.20
2016,04,26,14,46,14.20
2016,04,26,14,47,14.20
2016,04,26,14,48,14.20
2016,04,26,14,49,14.20
2016,04,26,14,50,14.10
2016,04,26,14,51,14.00
2016,04,26,14,52,13.90
2016,04,26,14,53,13.80
2016,04,26,14,54,13.80
2016,04,26,14,55,13.80
2016,04,26,14,56,13.70
2016,04,26,14,57,13.70
2016,04,26,14,58,13.60
2016,04,26,14,59,13.50
2016,04,26,15,00,13.40
2016,04,26,15,01,13.30
2016,04,26,15,02,13.20
2016,04,26,15,03,13.10
2016,04,26,15,04,13.10
2016,04,26,15,05,13.00
2016,04,26,15,06,13.00
2016,04,26,15,07,12.90
2016,04,26,15,08,12.90
2016,04,26,15,09,12.90
2016,04,26,15,10,12.90
2016,04,26,15,11,12.90
2016,04,26,15,12,12.90
2016,04,26,15,13,12.90
2016,04,26,15,14,12.90
2016,04,26,15,15,12.90
2016,04,26,15,16,12.90
2016,04,26,15,17,12.90
2016,04,26,15,18,12.90
2016,04,26,15,19,12.90
2016,04,26,15,20,12.90
2016,04,26,15,21,12.90
2016,04,26,15,22,12.90
2016,04,26,15,23,12.90
2016,04,26,15,24,12.90
2016,04,26,15,25,12.90
2016,04,26,15,26,12.90
2016,04,26,15,27,12.90
2016,04,26,15,28,13.00
2016,04,26,15,29,13.00
2016,04,26,15,30,13.10
2016,04,26,15,31,13.10
2016,04,26,15,32,13.20
2016,04,26,15,33,13.30
2016,04,26,15,34,13.30
2016,04,26,15,35,13.40
2016,04,26,15,36,13.40
2016,04,26,15,37,13.40
2016,04,26,15,38,13.50
2016,04,26,15,39,13.50
2016,04,26,15,40,13.60
2016,04,26,15,41,13.60
2016,04,26,15,42,13.60
2016,04,26,15,43,13.60
2016,04,26,15,44,13.60
2016,04,26,15,45,13.60
2016,04,26,15,46,13.60
2016,04,26,15,47,13.60
2016,04,26,15,48,13.60
2016,04,26,15,49,13.50
2016,04,26,15,50,13.40
2016,04,26,15,51,13.30
2016,04,26,15,52,13.20
2016,04,26,15,53,13.10
2016,04,26,15,54,13.00
2016,04,26,15,55,13.00
2016,04,26,15,56,12.90
2016,04,26,15,57,12.90
2016,04,26,15,58,12.90
2016,04,26,15,59,12.80
2016,04,26,16,00,12.80
2016,04,26,16,01,12.80
2016,04,26,16,02,12.80
2016,04,26,16,03,12.80
2016,04,26,16,04,12.70
2016,04,26,16,05,12.70
2016,04,26,16,06,12.60
2016,04,26,16,07,12.60
2016,04,26,16,08,12.60
2016,04,26,16,09,12.50
2016,04,26,16,10,12.50
2016,04,26,16,11,12.50
2016,04,26,16,12,12.40
2016,04,26,16,13,12.40
2016,04,26,16,14,12.30
2016,04,26,16,15,12.30
2016,04,26,16,16,12.30
2016,04,26,16,17,12.40
2016,04,26,16,18,12.40
2016,04,26,16,19,12.40
2016,04,26,16,20,12.50
2016,04,26,16,21,12.60
2016,04,26,16,22,12.60
2016,04,26,16,23,12.70
2016,04,26,16,24,12.80
2016,04,26,16,25,12.80
2016,04,26,16,26,12.80
2016,04,26,16,27,12.80
2016,04,26,16,28,12.80
2016,04,26,16,29,12.90
2016,04,26,16,30,12.90
2016,04,26,16,31,12.90
2016,04,26,16,32,12.90
2016,04,26,16,33,12.90
2016,04,26,16,34,12.90
2016,04,26,16,35,12.90
2016,04,26,16,36,12.90
2016,04,26,16,37,12.90
2016,04,26,16,38,12.90
2016,04,26,16,39,12.90
2016,04,26,16,40,12.90
2016,04,26,16,41,12.90
2016,04,26,16,42,12.90
2016,04,26,16,43,12.90
2016,04,26,16,44,13.00
2016,04,26,16,45,12.90
2016,04,26,16,46,12.90
2016,04,26,16,47,12.90
2016,04,26,16,48,12.90
2016,04,26,16,49,12.90
2016,04,26,16,50,12.90
2016,04,26,16,51,12.90
2016,04,26,16,52,12.90
2016,04,26,16,53,12.90
2016,04,26,16,54,12.90
2016,04,26,16,55,12.90
2016,04,26,16,56,12.90
2016,04,26,16,57,12.90
2016,04,26,16,58,12.90
2016,04,26,16,59,12.90
2016,04,26,17,00,12.90
2016,04,26,17,01,12.90
2016,04,26,17,02,12.90
2016,04,26,17,03,12.90
2016,04,26,17,04,12.90
2016,04,26,17,05,12.90
2016,04,26,17,06,12.90
2016,04,26,17,07,12.90
2016,04,26,17,08,12.90
2016,04,26,17,09,12.90
2016,04,26,17,10,12.80
2016,04,26,17,11,12.80
2016,04,26,17,12,12.80
2016,04,26,17,13,12.80
2016,04,26,17,14,12.80
2016,04,26,17,15,12.80
2016,04,26,17,16,12.80
2016,04,26,17,17,12.80
2016,04,26,17,18,12.80
2016,04,26,17,19,12.80
2016,04,26,17,20,12.80
2016,04,26,17,21,12.80
2016,04,26,17,22,12.70
2016,04,26,17,23,12.70
2016,04,26,17,24,12.70
2016,04,26,17,25,12.70
2016,04,26,17,26,12.70
2016,04,26,17,27,12.70
2016,04,26,17,28,12.70
2016,04,26,17,29,12.70
2016,04,26,17,30,12.60
2016,04,26,17,31,12.60
2016,04,26,17,32,12.60
2016,04,26,17,33,12.50
2016,04,26,17,34,12.50
2016,04,26,17,35,12.40
2016,04,26,17,36,12.40
2016,04,26,17,37,12.40
2016,04,26,17,38,12.40
2016,04,26,17,39,12.30
2016,04,26,17,40,12.30
2016,04,26,17,41,12.30
2016,04,26,17,42,12.20
2016,04,26,17,43,12.20
2016,04,26,17,44,12.20
2016,04,26,17,45,12.20
2016,04,26,17,46,12.20
2016,04,26,17,47,12.10